RUK2815 EDDK-EGSS

Flight info

Callsign RUK2815
Flight time 1h 1m
Altitude 24000
Route NVO2R NVO Y868 SOGRI DCT KOZUF DCT IMPOH DCT SASKI L608 SUMUM Y6 TOSVA
Aircraft B738/M-SDE2E3FGHIRWXY/LB1

Departure

Time 2026-04-24 22:29
Airport Cologne Bonn Airport (EDDK)

Arrival

Time 2026-04-24 23:30
Airport London Stansted Airport (EGSS)
Time Latitude Longitude Altitude Speed Heading
2026-04-24 21:40 50.88127 7.12044 236 ft 0 kts 216°
2026-04-24 22:10 50.88137 7.12056 231 ft 4 kts 218°
2026-04-24 22:11 50.88157 7.12081 232 ft 2 kts 216°
2026-04-24 22:11 50.88177 7.12096 233 ft 4 kts 166°
2026-04-24 22:11 50.88193 7.12074 233 ft 4 kts 117°
2026-04-24 22:11 50.88205 7.12040 234 ft 1 kts 126°
2026-04-24 22:12 50.88205 7.12039 234 ft 1 kts 126°
2026-04-24 22:16 50.88203 7.12044 231 ft 2 kts 126°
2026-04-24 22:16 50.88188 7.12076 232 ft 5 kts 126°
2026-04-24 22:16 50.88158 7.12141 231 ft 9 kts 126°
2026-04-24 22:16 50.88115 7.12236 231 ft 12 kts 125°
2026-04-24 22:17 50.88097 7.12316 231 ft 12 kts 107°
2026-04-24 22:17 50.88051 7.12417 231 ft 11 kts 130°
2026-04-24 22:17 50.87996 7.12502 231 ft 11 kts 137°
2026-04-24 22:17 50.87941 7.12582 231 ft 11 kts 137°
2026-04-24 22:18 50.87882 7.12610 231 ft 9 kts 186°
2026-04-24 22:18 50.87825 7.12626 231 ft 8 kts 155°
2026-04-24 22:18 50.87780 7.12682 231 ft 8 kts 137°
2026-04-24 22:18 50.87739 7.12741 231 ft 8 kts 137°
2026-04-24 22:19 50.87700 7.12798 231 ft 8 kts 137°
2026-04-24 22:19 50.87661 7.12854 231 ft 7 kts 137°
2026-04-24 22:19 50.87624 7.12907 231 ft 7 kts 137°
2026-04-24 22:19 50.87588 7.12959 231 ft 7 kts 137°
2026-04-24 22:20 50.87553 7.13010 231 ft 7 kts 137°
2026-04-24 22:20 50.87514 7.13067 231 ft 8 kts 137°
2026-04-24 22:20 50.87466 7.13137 231 ft 10 kts 137°
2026-04-24 22:20 50.87409 7.13219 231 ft 12 kts 137°
2026-04-24 22:21 50.87344 7.13312 231 ft 13 kts 137°
2026-04-24 22:21 50.87273 7.13415 232 ft 14 kts 137°
2026-04-24 22:21 50.87204 7.13516 235 ft 13 kts 137°
2026-04-24 22:21 50.87137 7.13612 237 ft 13 kts 137°
2026-04-24 22:22 50.87072 7.13706 240 ft 12 kts 137°
2026-04-24 22:22 50.87009 7.13798 242 ft 12 kts 137°
2026-04-24 22:22 50.86947 7.13887 247 ft 12 kts 137°
2026-04-24 22:22 50.86888 7.13974 252 ft 12 kts 137°
2026-04-24 22:23 50.86828 7.14061 254 ft 12 kts 137°
2026-04-24 22:23 50.86767 7.14123 254 ft 8 kts 169°
2026-04-24 22:23 50.86717 7.14160 256 ft 8 kts 137°
2026-04-24 22:23 50.86676 7.14220 259 ft 8 kts 137°
2026-04-24 22:24 50.86636 7.14278 260 ft 8 kts 137°
2026-04-24 22:24 50.86589 7.14346 261 ft 11 kts 137°
2026-04-24 22:24 50.86529 7.14434 263 ft 12 kts 137°
2026-04-24 22:24 50.86466 7.14525 267 ft 12 kts 137°
2026-04-24 22:25 50.86405 7.14613 271 ft 12 kts 137°
2026-04-24 22:25 50.86346 7.14700 274 ft 11 kts 137°
2026-04-24 22:25 50.86288 7.14783 277 ft 11 kts 137°
2026-04-24 22:25 50.86232 7.14864 281 ft 11 kts 137°
2026-04-24 22:26 50.86177 7.14943 284 ft 10 kts 137°
2026-04-24 22:26 50.86124 7.15020 285 ft 10 kts 137°
2026-04-24 22:26 50.86073 7.15095 287 ft 10 kts 135°
2026-04-24 22:26 50.86046 7.15190 293 ft 10 kts 96°
2026-04-24 22:27 50.86064 7.15300 293 ft 12 kts 49°
2026-04-24 22:27 50.86143 7.15358 289 ft 13 kts
2026-04-24 22:27 50.86230 7.15333 287 ft 13 kts 348°
2026-04-24 22:27 50.86315 7.15302 285 ft 12 kts 345°
2026-04-24 22:28 50.86400 7.15268 283 ft 13 kts 345°
2026-04-24 22:28 50.86456 7.15215 281 ft 6 kts 318°
2026-04-24 22:28 50.86496 7.15158 279 ft 12 kts 317°
2026-04-24 22:28 50.86645 7.14942 272 ft 60 kts 317°
2026-04-24 22:29 50.87932 7.13100 299 ft 175 kts 318°
2026-04-24 22:29 50.88806 7.11849 1174 ft 163 kts 317°
2026-04-24 22:29 50.89658 7.10605 1925 ft 169 kts 319°
2026-04-24 22:30 50.90511 7.09192 2336 ft 192 kts 307°
2026-04-24 22:30 50.91062 7.07193 2803 ft 205 kts 282°
2026-04-24 22:30 50.91073 7.04910 3264 ft 213 kts 261°
2026-04-24 22:30 50.90613 7.02646 3718 ft 223 kts 251°
2026-04-24 22:31 50.90071 7.00232 4008 ft 241 kts 253°
2026-04-24 22:31 50.89513 6.97591 4286 ft 264 kts 253°
2026-04-24 22:31 50.88924 6.94790 4955 ft 271 kts 253°
2026-04-24 22:31 50.88324 6.91944 5703 ft 274 kts 253°
2026-04-24 22:32 50.87716 6.89071 6461 ft 277 kts 253°
2026-04-24 22:32 50.87252 6.86108 7170 ft 278 kts 264°
2026-04-24 22:32 50.87076 6.83051 7916 ft 279 kts 268°
2026-04-24 22:32 50.86961 6.79969 8644 ft 282 kts 268°
2026-04-24 22:33 50.86848 6.76854 9379 ft 285 kts 268°
2026-04-24 22:33 50.86724 6.73711 10109 ft 288 kts 267°
2026-04-24 22:33 50.86586 6.70518 10601 ft 299 kts 267°
2026-04-24 22:33 50.86430 6.67113 10758 ft 321 kts 266°
2026-04-24 22:34 50.86254 6.63486 10991 ft 338 kts 266°
2026-04-24 22:34 50.86068 6.59786 11530 ft 344 kts 266°
2026-04-24 22:34 50.85873 6.55998 12240 ft 346 kts 266°
2026-04-24 22:34 50.85673 6.52195 12955 ft 348 kts 266°
2026-04-24 22:35 50.85470 6.48362 13667 ft 351 kts 266°
2026-04-24 22:35 50.85263 6.44498 14352 ft 354 kts 266°
2026-04-24 22:35 50.85054 6.40608 15048 ft 355 kts 266°
2026-04-24 22:35 50.84842 6.36704 15765 ft 357 kts 266°
2026-04-24 22:36 50.84629 6.32786 16472 ft 359 kts 265°
2026-04-24 22:36 50.84412 6.28840 17158 ft 361 kts 265°
2026-04-24 22:36 50.84193 6.24868 17840 ft 364 kts 265°
2026-04-24 22:36 50.83971 6.20873 18534 ft 365 kts 265°
2026-04-24 22:37 50.83750 6.16891 19293 ft 361 kts 265°
2026-04-24 22:37 50.83530 6.12966 20155 ft 355 kts 265°
2026-04-24 22:37 50.83311 6.09106 20991 ft 351 kts 265°
2026-04-24 22:37 50.83122 6.05270 21680 ft 350 kts 269°
2026-04-24 22:38 50.83295 6.01438 22387 ft 349 kts 277°
2026-04-24 22:38 50.83831 5.97719 23189 ft 346 kts 286°
2026-04-24 22:38 50.84637 5.94144 23909 ft 345 kts 288°
2026-04-24 22:38 50.85478 5.90577 24160 ft 347 kts 288°
2026-04-24 22:39 50.86330 5.87001 24197 ft 347 kts 288°
2026-04-24 22:39 50.87177 5.83438 24207 ft 345 kts 288°
2026-04-24 22:39 50.88016 5.79883 24214 ft 344 kts 288°
2026-04-24 22:39 50.88848 5.76333 24218 ft 344 kts 288°
2026-04-24 22:40 50.89664 5.72833 24218 ft 344 kts 288°
2026-04-24 22:40 50.90489 5.69280 24214 ft 344 kts 288°
2026-04-24 22:40 50.91311 5.65728 24214 ft 343 kts 288°
2026-04-24 22:40 50.92132 5.62171 24216 ft 344 kts 288°
2026-04-24 22:41 50.92951 5.58613 24218 ft 344 kts 288°
2026-04-24 22:41 50.93771 5.55047 24220 ft 344 kts 288°
2026-04-24 22:41 50.94590 5.51474 24218 ft 345 kts 288°
2026-04-24 22:41 50.95409 5.47898 24220 ft 346 kts 288°
2026-04-24 22:42 50.96229 5.44313 24219 ft 346 kts 288°
2026-04-24 22:42 50.97049 5.40720 24220 ft 346 kts 288°
2026-04-24 22:42 50.97868 5.37125 24219 ft 347 kts 288°
2026-04-24 22:42 50.98686 5.33528 24220 ft 347 kts 288°
2026-04-24 22:43 50.99503 5.29927 24223 ft 347 kts 288°
2026-04-24 22:43 51.00320 5.26326 24227 ft 347 kts 288°
2026-04-24 22:43 51.01134 5.22726 24229 ft 346 kts 288°
2026-04-24 22:43 51.01947 5.19126 24229 ft 346 kts 288°
2026-04-24 22:44 51.02759 5.15526 24226 ft 346 kts 288°
2026-04-24 22:44 51.03569 5.11929 24225 ft 346 kts 288°
2026-04-24 22:44 51.04376 5.08336 24229 ft 345 kts 288°
2026-04-24 22:44 51.05183 5.04742 24233 ft 345 kts 288°
2026-04-24 22:45 51.05986 5.01153 24231 ft 345 kts 288°
2026-04-24 22:45 51.06789 4.97563 24231 ft 344 kts 288°
2026-04-24 22:45 51.07590 4.93975 24231 ft 344 kts 288°
2026-04-24 22:45 51.08389 4.90389 24231 ft 344 kts 288°
2026-04-24 22:46 51.09187 4.86800 24231 ft 344 kts 288°
2026-04-24 22:46 51.09984 4.83211 24231 ft 344 kts 288°
2026-04-24 22:46 51.10779 4.79624 24232 ft 344 kts 288°
2026-04-24 22:46 51.11573 4.76033 24231 ft 344 kts 288°
2026-04-24 22:47 51.12367 4.72441 24234 ft 344 kts 288°
2026-04-24 22:47 51.13158 4.68850 24234 ft 344 kts 288°
2026-04-24 22:47 51.13951 4.65251 24239 ft 344 kts 288°
2026-04-24 22:47 51.14741 4.61655 24239 ft 344 kts 288°
2026-04-24 22:48 51.15531 4.58054 24240 ft 344 kts 288°
2026-04-24 22:48 51.16319 4.54454 24239 ft 344 kts 288°
2026-04-24 22:48 51.17106 4.50854 24239 ft 344 kts 288°
2026-04-24 22:48 51.17893 4.47248 24239 ft 344 kts 288°
2026-04-24 22:49 51.18678 4.43645 24240 ft 344 kts 288°
2026-04-24 22:49 51.19461 4.40040 24240 ft 344 kts 288°
2026-04-24 22:49 51.20234 4.36480 24240 ft 344 kts 287°
2026-04-24 22:49 51.21015 4.32876 24239 ft 344 kts 287°
2026-04-24 22:50 51.21796 4.29264 24237 ft 344 kts 287°
2026-04-24 22:50 51.22576 4.25654 24238 ft 344 kts 287°
2026-04-24 22:50 51.23354 4.22044 24237 ft 344 kts 287°
2026-04-24 22:50 51.24132 4.18431 24234 ft 344 kts 287°
2026-04-24 22:51 51.24907 4.14819 24233 ft 344 kts 287°
2026-04-24 22:51 51.25681 4.11210 24233 ft 344 kts 287°
2026-04-24 22:51 51.26455 4.07594 24241 ft 344 kts 287°
2026-04-24 22:51 51.27226 4.03984 24241 ft 344 kts 287°
2026-04-24 22:52 51.27997 4.00371 24233 ft 343 kts 287°
2026-04-24 22:52 51.28764 3.96767 24226 ft 343 kts 287°
2026-04-24 22:52 51.29530 3.93162 24224 ft 342 kts 287°
2026-04-24 22:52 51.30293 3.89566 24224 ft 341 kts 287°
2026-04-24 22:53 51.31053 3.85976 24225 ft 341 kts 287°
2026-04-24 22:53 51.31811 3.82391 24225 ft 340 kts 287°
2026-04-24 22:53 51.32567 3.78806 24223 ft 340 kts 287°
2026-04-24 22:53 51.33322 3.75228 24226 ft 340 kts 287°
2026-04-24 22:54 51.34075 3.71646 24224 ft 340 kts 287°
2026-04-24 22:54 51.34827 3.68066 24223 ft 340 kts 287°
2026-04-24 22:54 51.35651 3.64521 24220 ft 341 kts 292°
2026-04-24 22:54 51.36686 3.61105 24235 ft 341 kts 295°
2026-04-24 22:55 51.37773 3.57723 24229 ft 342 kts 295°
2026-04-24 22:55 51.38871 3.54345 24234 ft 342 kts 295°
2026-04-24 22:55 51.39968 3.50960 24235 ft 343 kts 295°
2026-04-24 22:55 51.41060 3.47566 24235 ft 343 kts 295°
2026-04-24 22:56 51.42147 3.44167 24233 ft 343 kts 295°
2026-04-24 22:56 51.43229 3.40762 24234 ft 343 kts 295°
2026-04-24 22:56 51.44308 3.37352 24234 ft 343 kts 295°
2026-04-24 22:56 51.45385 3.33939 24239 ft 343 kts 295°
2026-04-24 22:57 51.46459 3.30526 24239 ft 342 kts 295°
2026-04-24 22:57 51.47529 3.27120 24234 ft 342 kts 294°
2026-04-24 22:57 51.48598 3.23712 24240 ft 341 kts 294°
2026-04-24 22:57 51.49662 3.20313 24241 ft 341 kts 294°
2026-04-24 22:58 51.50724 3.16916 24241 ft 340 kts 294°
2026-04-24 22:58 51.51782 3.13525 24241 ft 340 kts 294°
2026-04-24 22:58 51.52840 3.10132 24242 ft 339 kts 294°
2026-04-24 22:58 51.53894 3.06745 24260 ft 339 kts 294°
2026-04-24 22:59 51.54945 3.03364 24246 ft 338 kts 294°
2026-04-24 22:59 51.55994 2.99984 24242 ft 337 kts 294°
2026-04-24 22:59 51.58081 2.93245 24236 ft 336 kts 294°
2026-04-24 23:00 51.59120 2.89885 24244 ft 335 kts 294°
2026-04-24 23:00 51.60155 2.86530 24244 ft 335 kts 294°
2026-04-24 23:00 51.61175 2.83223 24246 ft 334 kts 294°
2026-04-24 23:00 51.62206 2.79872 24248 ft 334 kts 294°
2026-04-24 23:01 51.63224 2.76518 24247 ft 333 kts 291°
2026-04-24 23:01 51.63989 2.73007 24252 ft 332 kts 285°
2026-04-24 23:01 51.64649 2.69443 24248 ft 333 kts 285°
2026-04-24 23:01 51.65298 2.65866 24247 ft 333 kts 285°
2026-04-24 23:02 51.65960 2.62288 24249 ft 334 kts 285°
2026-04-24 23:02 51.66628 2.58708 24249 ft 334 kts 285°
2026-04-24 23:02 51.67297 2.55119 24248 ft 335 kts 285°
2026-04-24 23:02 51.67966 2.51527 24248 ft 335 kts 285°
2026-04-24 23:03 51.68633 2.47928 24253 ft 335 kts 285°
2026-04-24 23:03 51.69299 2.44327 24253 ft 335 kts 285°
2026-04-24 23:03 51.69961 2.40737 24244 ft 331 kts 285°
2026-04-24 23:03 51.70605 2.37242 24227 ft 319 kts 285°
2026-04-24 23:04 51.71233 2.33827 24016 ft 315 kts 285°
2026-04-24 23:04 51.71849 2.30463 23756 ft 312 kts 285°
2026-04-24 23:04 51.72460 2.27121 23438 ft 309 kts 285°
2026-04-24 23:04 51.73064 2.23811 23088 ft 306 kts 285°
2026-04-24 23:05 51.73461 2.21635 22890 ft 304 kts 285°
2026-04-24 23:05 51.74054 2.18370 22552 ft 302 kts 285°
2026-04-24 23:05 51.74643 2.15126 22232 ft 300 kts 285°
2026-04-24 23:05 51.75235 2.11863 21915 ft 298 kts 285°
2026-04-24 23:06 51.75806 2.08704 21605 ft 296 kts 285°
2026-04-24 23:06 51.76382 2.05520 21293 ft 295 kts 285°
2026-04-24 23:06 51.76953 2.02353 20990 ft 293 kts 285°
2026-04-24 23:06 51.77520 1.99201 20697 ft 292 kts 285°
2026-04-24 23:07 51.78084 1.96064 20379 ft 290 kts 285°
2026-04-24 23:07 51.78646 1.92929 20088 ft 292 kts 285°
2026-04-24 23:07 51.79211 1.89773 19788 ft 294 kts 285°
2026-04-24 23:07 51.79784 1.86568 19487 ft 302 kts 285°
2026-04-24 23:08 51.80375 1.83251 19166 ft 312 kts 285°
2026-04-24 23:08 51.80978 1.79860 18812 ft 315 kts 285°
2026-04-24 23:08 51.81582 1.76466 18484 ft 314 kts 285°
2026-04-24 23:08 51.82183 1.73080 18129 ft 313 kts 285°
2026-04-24 23:09 51.82781 1.69708 17790 ft 311 kts 285°
2026-04-24 23:09 51.83374 1.66353 17467 ft 309 kts 285°
2026-04-24 23:09 51.83963 1.63016 17150 ft 308 kts 285°
2026-04-24 23:09 51.84547 1.59701 16852 ft 305 kts 285°
2026-04-24 23:10 51.85126 1.56410 16536 ft 304 kts 285°
2026-04-24 23:10 51.85701 1.53132 16236 ft 302 kts 285°
2026-04-24 23:10 51.86272 1.49874 15928 ft 300 kts 285°
2026-04-24 23:10 51.86838 1.46633 15635 ft 299 kts 285°
2026-04-24 23:11 51.87402 1.43405 15334 ft 298 kts 285°
2026-04-24 23:11 51.87962 1.40188 15037 ft 296 kts 285°
2026-04-24 23:11 51.88520 1.36983 14741 ft 295 kts 285°
2026-04-24 23:11 51.89075 1.33785 14450 ft 295 kts 285°
2026-04-24 23:12 51.89626 1.30602 14156 ft 294 kts 285°
2026-04-24 23:12 51.90177 1.27418 13837 ft 293 kts 285°
2026-04-24 23:12 51.90724 1.24247 13519 ft 292 kts 285°
2026-04-24 23:12 51.91268 1.21089 13209 ft 290 kts 285°
2026-04-24 23:13 51.91809 1.17943 12916 ft 289 kts 285°
2026-04-24 23:13 51.92346 1.14818 12624 ft 287 kts 285°
2026-04-24 23:13 51.92880 1.11704 12333 ft 286 kts 285°
2026-04-24 23:13 51.93409 1.08609 12048 ft 285 kts 286°
2026-04-24 23:14 51.93936 1.05526 11759 ft 283 kts 286°
2026-04-24 23:14 51.94459 1.02457 11474 ft 282 kts 286°
2026-04-24 23:14 51.94979 0.99398 11193 ft 281 kts 286°
2026-04-24 23:14 51.95498 0.96350 10908 ft 280 kts 286°
2026-04-24 23:15 51.96013 0.93311 10623 ft 279 kts 286°
2026-04-24 23:15 51.96525 0.90284 10406 ft 276 kts 286°
2026-04-24 23:15 51.97026 0.87318 10257 ft 270 kts 286°
2026-04-24 23:15 51.97522 0.84380 9959 ft 270 kts 286°
2026-04-24 23:16 51.98016 0.81447 9678 ft 269 kts 286°
2026-04-24 23:16 51.98507 0.78531 9403 ft 268 kts 286°
2026-04-24 23:16 51.98996 0.75622 9134 ft 267 kts 286°
2026-04-24 23:16 51.99481 0.72728 8857 ft 265 kts 286°
2026-04-24 23:17 51.99963 0.69849 8646 ft 262 kts 286°
2026-04-24 23:17 52.00426 0.67080 8540 ft 255 kts 286°
2026-04-24 23:17 52.00882 0.64343 8430 ft 248 kts 286°
2026-04-24 23:17 52.01325 0.61683 8310 ft 241 kts 286°
2026-04-24 23:18 52.01632 0.59037 8022 ft 242 kts 269°
2026-04-24 23:18 52.01460 0.56301 7712 ft 246 kts 264°
2026-04-24 23:18 52.01284 0.53495 7295 ft 253 kts 265°
2026-04-24 23:18 52.01121 0.50616 6877 ft 260 kts 265°
2026-04-24 23:19 52.00959 0.47659 6433 ft 266 kts 265°
2026-04-24 23:19 52.00815 0.44691 6294 ft 259 kts 266°
2026-04-24 23:19 52.00701 0.41824 6140 ft 250 kts 267°
2026-04-24 23:19 52.00594 0.39050 6028 ft 242 kts 267°
2026-04-24 23:20 52.00487 0.36350 6005 ft 238 kts 267°
2026-04-24 23:20 52.00380 0.33685 5996 ft 236 kts 266°
2026-04-24 23:20 52.00271 0.31032 5999 ft 236 kts 266°
2026-04-24 23:20 52.00121 0.28363 6001 ft 240 kts 256°
2026-04-24 23:21 51.99288 0.26048 6016 ft 241 kts 225°
2026-04-24 23:21 51.98059 0.24181 6003 ft 243 kts 223°
2026-04-24 23:21 51.96816 0.22317 5995 ft 244 kts 223°
2026-04-24 23:21 51.95547 0.20419 5613 ft 250 kts 223°
2026-04-24 23:22 51.94279 0.18513 5267 ft 247 kts 223°
2026-04-24 23:22 51.93028 0.16629 4922 ft 244 kts 223°
2026-04-24 23:22 51.91794 0.14766 4574 ft 241 kts 223°
2026-04-24 23:22 51.90575 0.12925 4235 ft 238 kts 223°
2026-04-24 23:23 51.89370 0.11105 3907 ft 235 kts 222°
2026-04-24 23:23 51.88192 0.09328 3623 ft 227 kts 222°
2026-04-24 23:23 51.87050 0.07607 3281 ft 221 kts 222°
2026-04-24 23:23 51.85943 0.05938 3021 ft 212 kts 222°
2026-04-24 23:24 51.84916 0.04373 2979 ft 203 kts 222°
2026-04-24 23:24 51.83894 0.02813 2926 ft 201 kts 222°
2026-04-24 23:24 51.82880 0.01268 2892 ft 200 kts 222°
2026-04-24 23:24 51.81864 -0.00279 2864 ft 201 kts 223°
2026-04-24 23:25 51.80837 -0.01812 2827 ft 201 kts 216°
2026-04-24 23:25 51.79563 -0.02526 2761 ft 194 kts 173°
2026-04-24 23:25 51.78353 -0.01760 2770 ft 184 kts 142°
2026-04-24 23:25 51.77424 -0.00415 2722 ft 177 kts 134°
2026-04-24 23:26 51.76675 0.01123 2640 ft 174 kts 115°
2026-04-24 23:26 51.76363 0.02986 2530 ft 171 kts 92°
2026-04-24 23:26 51.76551 0.04861 2499 ft 170 kts 68°
2026-04-24 23:26 51.77246 0.06388 2511 ft 171 kts 45°
2026-04-24 23:27 51.78091 0.07741 2494 ft 172 kts 46°
2026-04-24 23:27 51.78944 0.09075 2495 ft 169 kts 45°
2026-04-24 23:27 51.79799 0.10375 2482 ft 170 kts 45°
2026-04-24 23:27 51.80652 0.11662 2281 ft 165 kts 45°
2026-04-24 23:28 51.81472 0.12898 2106 ft 156 kts 44°
2026-04-24 23:28 51.82245 0.14063 1858 ft 147 kts 44°
2026-04-24 23:28 51.82985 0.15178 1662 ft 144 kts 44°
2026-04-24 23:28 51.83720 0.16286 1472 ft 145 kts 44°
2026-04-24 23:29 51.84462 0.17404 1270 ft 146 kts 45°
2026-04-24 23:29 51.85205 0.18523 1055 ft 146 kts 44°
2026-04-24 23:29 51.85949 0.19643 847 ft 146 kts 44°
2026-04-24 23:29 51.86692 0.20758 639 ft 146 kts 44°
2026-04-24 23:30 51.87435 0.21876 421 ft 145 kts 45°
2026-04-24 23:30 51.88150 0.22962 332 ft 132 kts 41°
2026-04-24 23:30 51.88671 0.23739 339 ft 71 kts 43°
2026-04-24 23:30 51.88847 0.24077 348 ft 12 kts 65°
2026-04-24 23:31 51.88875 0.24203 353 ft 12 kts 73°
2026-04-24 23:31 51.88896 0.24318 348 ft 8 kts 73°
2026-04-24 23:31 51.88912 0.24399 351 ft 7 kts 73°
2026-04-24 23:31 51.88921 0.24469 351 ft 6 kts 99°
2026-04-24 23:32 51.88899 0.24530 357 ft 6 kts 114°
2026-04-24 23:32 51.88916 0.24589 357 ft 6 kts 43°
2026-04-24 23:32 51.88947 0.24636 354 ft 6 kts 43°
2026-04-24 23:32 51.88979 0.24684 351 ft 7 kts 43°
2026-04-24 23:33 51.89019 0.24744 358 ft 9 kts 43°
2026-04-24 23:33 51.89053 0.24796 354 ft 11 kts 43°
2026-04-24 23:33 51.89141 0.24928 351 ft 15 kts 43°
2026-04-24 23:33 51.89217 0.25052 358 ft 16 kts 54°
2026-04-24 23:34 51.89228 0.25188 357 ft 10 kts 126°
2026-04-24 23:34 51.89188 0.25282 356 ft 10 kts 119°
2026-04-24 23:34 51.89151 0.25374 359 ft 10 kts 133°
2026-04-24 23:34 51.89105 0.25453 361 ft 10 kts 133°
2026-04-24 23:35 51.89060 0.25531 356 ft 9 kts 133°
2026-04-24 23:35 51.89030 0.25587 354 ft 4 kts 122°
2026-04-24 23:35 51.89037 0.25631 360 ft 4 kts 51°
2026-04-24 23:35 51.89053 0.25654 355 ft 3 kts 43°
2026-04-24 23:36 51.89057 0.25661 355 ft 0 kts 43°